Regional Weather Roundup
Issued by NWS

Home | Current Version | Previous Version | Graphics & Text | Print | Product List | Glossary On
Versions: 1 2 3 4 5 6 7 8 9 10 11 12 13 14 15 16 17 18 19 20 21 22 23 24 25 26 27 28 29 30 31 32 33 34 35 36 37 38 39 40 41 42 43 44 45 46 47 48 49 50
000
ASUS43 KOAX 031602
RWRNE

WEATHER ROUNDUP FOR NEBRASKA
NATIONAL WEATHER SERVICE OMAHA NE
1100 AM CDT MON AUG 03 2015

NOTES: SATELLITE DATA IS BEING USED TO AUGMENT CLOUD COVER ABOVE
       12000 FEET.
       "FAIR" INDICATES FEW OR NO CLOUDS BELOW 12,000 FEET WITH NO
       SIGNIFICANT WEATHER AND/OR OBSTRUCTIONS TO VISIBILITY.

  * THESE STATIONS DO NOT REPORT WEATHER SUCH AS RAIN...SNOW OR FOG.

NEZ001>004-019>022-054>056-031700-
NEBRASKA PANHANDLE

CITY           SKY/WX    TMP DP  RH WIND       PRES   REMARKS
SCOTTSBLUFF    MOSUNNY   73  60  63 SE6       30.03F
ALLIANCE       PTSUNNY   76  61  59 S12G20    30.04S
CHADRON          N/A     77  61  57 CALM      30.01F
KIMBALL        PTSUNNY   81  52  37 S7        30.06S
SIDNEY         PTSUNNY   80  56  43 VRB5      30.06S
$$

NEZ057>060-069>072-079>082-031700-
SOUTHWEST NEBRASKA

CITY           SKY/WX    TMP DP  RH WIND       PRES   REMARKS
NORTH PLATTE   MOSUNNY   75  64  68 SE15      30.02S
IMPERIAL       MOSUNNY   80  59  48 SE9       30.02S
LEXINGTON      MOSUNNY   77  64  64 E15       30.02S
MCCOOK         SUNNY     79  68  69 E8        30.00S
$$

NEZ005>010-023>029-035>040-094-031700-
NORTH CENTRAL NEBRASKA

CITY           SKY/WX    TMP DP  RH WIND       PRES   REMARKS
AINSWORTH      SUNNY     76  59  55 SE3       30.04S
BROKEN BOW     MOSUNNY   76  59  55 SE10G25   30.02F
O`NEILL        SUNNY     74  62  64 S5        30.03S
ORD            MOSUNNY   76  61  59 SE7       30.00R
$$

NEZ041-046>049-061>064-073>077-083>087-031700-
SOUTH CENTRAL NEBRASKA

CITY           SKY/WX    TMP DP  RH WIND       PRES   REMARKS
GRAND ISLAND   MOSUNNY   76  63  64 E13       30.00F
AURORA         MOSUNNY   74  65  74 E10       30.00F
HASTINGS       MOSUNNY   76  63  64 E12       30.01S
HEBRON         MOSUNNY   77  67  70 NE10      30.00R
HOLDREGE       MOSUNNY   75  65  72 E14       30.02S
KEARNEY *      MOSUNNY   75  63  64 E16       30.01F
YORK           PTSUNNY   73  64  73 E13       30.01S
$$

NEZ011>018-030>034-042>045-031700-
NORTHEAST NEBRASKA

CITY           SKY/WX    TMP DP  RH WIND       PRES   REMARKS
NORFOLK        PTSUNNY   71  62  73 VRB7      29.99S
ALBION         PTSUNNY   69  59  71 CALM      30.01R
BLAIR          CLOUDY    74  62  67 E6        30.00F
COLUMBUS *     CLOUDY    66  57  72 E8G25     29.95F
FREMONT        CLOUDY    73  62  68 SE5       30.01F
TEKAMAH        CLOUDY    73  65  75 SE5       29.99F
$$

NEZ050>053-065>068-078-088>093-031700-
SOUTHEAST NEBRASKA

CITY           SKY/WX    TMP DP  RH WIND       PRES   REMARKS
LINCOLN        CLOUDY    76  61  59 NE8       30.01R
OMAHA EPPLEY   CLOUDY    76  62  62 SE7       29.99F
BEATRICE       PTSUNNY   75  64  70 E12G17    29.99S
FALLS CITY     CLOUDY    74  66  76 NE5       29.97R
NEBRASKA CITY  PTSUNNY   73  60  62 E9        29.99F
$$

NEZ044-045-051>053-067-031700-
OMAHA AREA

CITY           SKY/WX    TMP DP  RH WIND       PRES   REMARKS
OMAHA EPPLEY   CLOUDY    76  62  62 SE7       29.99F
BLAIR          CLOUDY    74  62  67 E6        30.00F
FREMONT        CLOUDY    73  62  68 SE5       30.01F
OFFUTT AFB     CLOUDY    75  63  65 E7        29.98F
WAHOO          FAIR      71  64  78 CALM      30.00S
$$


USA.gov is the U.S. government's official web portal to all federal, state and local government web resources and services.